Location: Cherry Hinton
(52.1833°N, 0.1833°E)
Time: 01:21:16
(UTC+00:00)

Daily predictions for brighter satellites

Satellite Brightness Start Highest point End
(mag) Time Altitude Azimuth Time Altitude Azimuth Time Altitude Azimuth
Cosmos 2333 Rocket 4.4 03:20:48 20° E 03:20:48 20° E 03:24:01 10° NE
SL-16 R/B 4.2 03:46:47 22° NNE 03:46:47 22° NNE 03:48:41 10° NNE
Cosmos 2360 Rocket 3.8 03:49:56 29° NE 03:49:56 29° NE 03:52:41 10° NE
Cosmos 2322 Rocket 4.0 03:51:41 23° NNE 03:51:41 23° NNE 03:53:47 10° NNE
Cosmos 1980 Rocket 4.4 04:05:39 16° N 04:05:39 16° N 04:07:05 10° NNE
Cosmos 2369 Rocket 4.4 04:33:24 14° N 04:35:56 18° NNE 04:39:40 10° ENE
METEOR-M 4.4 04:34:17 10° NNE 04:39:37 64° ESE 04:41:14 43° SSE
Cosmos 2278 Rocket 2.2 04:43:00 74° NNE 04:43:20 77° ENE 04:49:01 10° SE
Cosmos 1937 Rocket 3.6 04:43:44 73° E 04:43:44 73° E 04:48:49 10° SSE
Cosmos 1867 4.1 04:44:48 50° N 04:44:48 50° N 04:49:05 10° NE
Cosmos 1943 Rocket 4.1 04:42:33 16° N 04:45:38 25° NE 04:50:15 10° E
Cosmos 44 Rocket 3.6 04:49:27 65° SSE 04:49:27 65° SSE 04:53:54 10° SE
ALOS 3.7 04:44:23 10° NNE 04:46:41 29° NNE 04:46:41 29° NNE
USA 215 3.3 04:43:30 10° ENE 04:49:56 63° N 04:50:54 56° NW
Cosmos 2322 3.5 04:56:40 78° W 04:56:50 79° WNW 05:02:37 10° NNE
Cosmos 2084 4.0 04:58:15 57° ENE 04:58:15 57° ENE 05:01:50 10° NE
Cosmos 2237 Rocket 3.8 04:52:31 10° S 04:57:33 34° ESE 05:02:37 10° NE
Cosmos 2233 Rocket 4.1 05:01:19 53° NW 05:01:19 53° NW 05:06:35 10° N
CZ-4B R/B 4.3 04:56:19 10° NNE 05:00:49 71° ESE 05:01:24 62° SSE
Cosmos 2219 Rocket 2.0 05:00:00 65° SSW 05:00:53 90° ESE 05:06:31 10° NNE
CZ-4B R/B 4.2 04:59:20 10° NNE 05:02:40 34° E 05:06:02 10° SSE
Cosmos 2333 Rocket 2.0 05:02:51 69° SW 05:03:32 81° WNW 05:09:15 10° NNE
Lacrosse 5 rocket 2.2 05:06:23 41° SE 05:06:23 41° SE 05:08:56 10° SE
Meteor 1-31 Rocket 4.3 05:01:46 10° NNE 05:03:43 28° NNE 05:03:43 28° NNE
IRIDIUM 104 4.2 05:00:54 10° S 05:06:07 82° W 05:11:24 10° N
GEOS 3 Rocket 3.6 05:01:12 10° SE 05:06:35 76° SW 05:07:17 66° WNW
Cosmos 921 Rocket 3.2 05:06:40 63° SE 05:07:00 66° ESE 05:11:11 10° NNE
Cosmos 1932 4.4 05:06:03 58° W 05:07:11 69° NW 05:13:37 10° NE
MOS 1 Rocket 3.4 05:05:34 10° SSE 05:10:29 76° ENE 05:13:19 24° N
IRIDIUM 114 4.2 05:10:04 10° SSW 05:15:17 70° W 05:20:31 10° N
Cosmos 1241 Rocket 4.5 05:13:40 45° WNW 05:15:45 71° SW 05:22:16 10° SSE
Cosmos 540 Rocket 4.4 05:11:01 10° S 05:15:55 48° ESE 05:20:51 10° NE
COSMO-SKYMED 1 3.2 05:14:54 10° S 05:17:53 42° SSW 05:17:53 42° SSW
Lacrosse 4 Rocket 4.4 05:17:58 10° SSE 05:20:41 17° ESE 05:23:27 10° ENE
COSMOS 2428 2.6 05:21:27 38° SW 05:23:44 76° WNW 05:29:28 10° NNE
IRIDIUM 103 4.3 05:19:19 10° SSW 05:24:28 59° W 05:29:39 10° N
Cosmos 2333 4.3 05:24:23 49° WNW 05:24:52 51° NW 05:30:22 10° NNE
Cosmos 1513 Rocket 4.4 05:18:50 10° S 05:25:09 84° W 05:31:24 10° N
ADEOS 3.4 05:20:36 10° NNE 05:25:49 70° WNW 05:29:54 17° SSW
SL-16 R/B 3.6 05:28:38 21° NNW 05:28:38 21° NNW 05:32:26 10° NNE
Cosmos 1980 4.2 05:24:53 10° SSW 05:30:26 60° ESE 05:36:01 10° NE
CZ-2C R/B 4.2 05:27:01 10° N 05:28:47 18° NNW 05:28:47 18° NNW
Cosmos 2360 Rocket 3.0 05:31:43 31° NW 05:31:43 31° NW 05:36:33 10° NNE
Cosmos 2322 Rocket 3.5 05:33:30 22° NNW 05:33:30 22° NNW 05:37:29 10° NNE
Cosmos 1891 Rocket 4.3 05:28:11 10° SSW 05:34:20 72° WNW 05:40:26 10° N
Cosmos 2084 Rocket 3.8 05:33:11 40° NNW 05:34:32 62° NE 05:38:58 10° ESE
FENGYUN 3A 3.9 05:29:30 10° N 05:34:34 42° WNW 05:34:53 42° WNW
Cosmos 1544 Rocket 3.5 05:31:05 10° S 05:35:24 86° E 05:39:47 10° NNE
Meteor PRIRODA 3.6 05:33:07 10° NNE 05:36:47 79° ESE 05:40:24 10° S
Cosmos 1464 Rocket 3.8 05:32:06 10° SSW 05:38:13 73° WNW 05:44:25 10° N
ERS-2 3.3 05:34:46 10° S 05:36:47 29° SSW 05:36:47 29° SSW
Meteor 2-10 4.1 05:34:15 10° SSW 05:39:46 59° WNW 05:45:10 10° N
Cosmos 2150 Rocket 4.3 05:37:56 14° NNW 05:42:35 67° ENE 05:47:56 10° SE
Cosmos 1072 Rocket 4.4 05:37:25 10° SSW 05:43:35 64° WNW 05:49:53 10° N
Cosmos 1726 4.1 05:48:16 17° N 05:48:16 17° N 05:49:19 10° N
Cosmos 1763 Rocket 3.4 05:42:48 23° SW 05:46:02 61° WNW 05:51:16 10° NNE
Okean 1-7 Rocket 3.9 05:46:14 42° W 05:46:14 42° W 05:50:28 10° SSW
Cosmos 1980 Rocket 4.2 05:47:25 11° NNW 05:48:36 12° N 05:50:50 10° NNE
Cosmos 1626 Rocket 3.5 05:46:17 14° NNW 05:50:07 67° W 05:54:33 10° S
Cosmos 1908 3.2 05:48:31 10° S 05:52:20 82° E 05:56:10 10° NNE
Cosmos 841 Rocket 3.4 05:47:48 10° SSW 05:52:57 86° ESE 05:58:08 10° NNE
Cosmos 1953 2.2 05:51:03 10° SSW 05:55:00 64° WNW 05:58:58 10° N
ATLAS CENTAUR R/B 3.6 05:55:06 10° S 05:58:05 23° ESE 06:01:01 10° ENE
H-2A R/B 4.1 05:54:53 10° NNE 05:59:08 40° E 06:03:23 10° S
BREEZE-M DEB (TANK) 4.3 05:55:17 23° W 05:59:24 35° SW 06:03:06 10° SSE
Cosmos 1092 Rocket 3.9 05:55:20 10° NNW 06:01:30 81° W 06:07:40 10° S
Meteor 1-16 Rocket 4.3 05:56:05 10° SSW 06:02:00 84° WNW 06:08:00 10° NNE
Cosmos 1455 Rocket 3.5 06:00:00 22° SW 06:02:16 37° WNW 06:06:20 10° N
Cosmos 2098 Rocket 4.1 05:58:02 10° N 06:04:36 72° ENE 06:09:50 10° SSE
Cosmos 2298 Rocket 4.0 06:02:08 12° NNW 06:07:09 79° WSW 06:12:29 10° SSE
Cosmos 1570 Rocket 3.9 06:05:47 10° SSW 06:11:01 83° WNW 06:16:19 10° NNE
deb Chang Zheng 4 3.8 06:07:18 10° N 06:11:21 42° WNW 06:15:20 10° SW
Cosmos 1758 Rocket 3.6 06:08:21 10° N 06:12:54 89° W 06:17:23 10° S
Cosmos 1340 3.0 06:12:25 23° NW 06:14:15 40° W 06:17:46 10° SSW
Cosmos 1315 Rocket 4.3 06:11:40 10° SSE 06:15:20 40° E 06:19:01 10° NNE
Cosmos 2034 Rocket 4.1 06:10:12 10° SSW 06:16:27 56° WNW 06:22:44 10° N
Nadezhda 4 Rocket 4.3 06:11:31 10° NNW 06:17:12 41° W 06:22:51 10° SSW
Cosmos 2369 Rocket 2.9 06:15:48 10° NNW 06:21:19 53° NE 06:26:46 10° SE
Cosmos 1461 3.4 06:18:29 15° WSW 06:22:18 53° NW 06:26:59 10° NE
Okean O Rocket 2.7 06:18:15 10° NNE 06:22:30 47° E 06:26:42 10° S
Meteor 1-11 4.1 06:18:31 10° NNW 06:24:06 70° W 06:29:39 10° S
ALOS 3.9 06:23:03 10° NNW 06:25:12 16° NW 06:25:12 16° NW
FALCON 9 DEB 3.7 06:23:26 12° SW 06:26:26 54° SSE 06:29:47 10° ENE
Cosmos 1703 4.0 06:24:09 16° NW 06:26:34 30° W 06:30:01 10° SSW
Cosmos 2278 Rocket 3.4 06:24:53 19° WNW 06:26:50 22° WSW 06:31:06 10° SSW
Cosmos 1125 Rocket 3.5 06:21:34 10° NNW 06:26:54 78° WSW 06:32:12 10° SSE
CZ-4B R/B 4.0 06:22:25 10° NNE 06:28:02 58° ESE 06:33:34 10° S
NOAA 12 4.4 06:23:31 10° NNE 06:28:48 71° ESE 06:34:06 10° S
SL-16 R/B 2.9 06:23:57 10° SSW 06:29:29 60° ESE 06:35:05 10° NE
Cosmos 1943 Rocket 2.2 06:24:28 10° NNW 06:30:10 88° ENE 06:35:52 10° SSE
Envisat 3.0 06:25:14 10° N 06:30:17 63° WNW 06:35:18 10° SSW
Cosmos 1602 Rocket 4.1 06:26:37 10° NNW 06:30:43 37° W 06:34:49 10° SSW
Cosmos 1634 Rocket 3.9 06:25:23 10° S 06:31:33 85° W 06:37:47 10° N
Cosmos 1814 Rocket 3.9 06:27:14 10° SW 06:32:20 64° WNW 06:37:28 10° NNE
Cosmos 2208 Rocket 4.0 06:26:54 10° SSW 06:32:21 70° WNW 06:37:46 10° NNE
USA 215 3.5 06:26:11 10° E 06:32:36 64° N 06:38:15 14° WNW
Cosmos 1726 Rocket 4.4 06:30:45 10° S 06:34:56 54° E 06:39:10 10° NNE
H-2A R/B 3.4 06:31:43 10° N 06:35:00 31° WNW 06:38:18 10° SW
Cosmos 1346 Rocket 2.8 06:31:33 10° NNW 06:35:28 57° W 06:39:23 10° S
CZ-2C R/B 2.6 06:30:59 10° S 06:36:10 62° W 06:41:30 10° NNW
Cosmos 2084 4.4 06:34:48 17° WNW 06:37:22 31° NNW 06:41:19 10° NE
CZ-4B R/B 3.7 06:34:45 10° N 06:37:39 23° WNW 06:40:35 10° WSW
NOAA 6 4.0 06:34:33 10° NNE 06:39:45 72° WNW 06:44:55 10° SSW
PAYLOAD B 4.3 06:34:14 10° NNE 06:39:50 89° WNW 06:45:27 10° SSW
AQUARIUS 4.3 06:35:25 10° NNE 06:39:57 82° ESE 06:44:28 10° SSW
Cosmos 2237 Rocket 2.3 06:35:52 10° SW 06:41:25 53° NW 06:47:02 10° NNE
Lacrosse 5 rocket 3.0 06:42:01 13° W 06:43:38 16° SW 06:45:58 10° SSW
SWAS 4.4 06:39:23 10° SW 06:43:40 79° NW 06:47:58 10° NNE
Cosmos 2219 Rocket 3.2 06:41:45 13° W 06:45:36 25° NW 06:50:12 10° NNE
Cosmos 921 Rocket 4.3 06:43:32 14° W 06:45:43 19° NW 06:48:47 10° N
Spot 2 3.9 06:42:15 10° N 06:46:18 63° WNW 06:50:17 10° SSW
Cosmos 2266 Rocket 4.5 06:40:16 10° N 06:46:18 62° ENE 06:52:17 10° SSE
YAOGAN 6 3.3 06:43:11 10° N 06:46:32 33° WNW 06:49:53 10° SW
SMAP 3.0 06:43:10 10° NNE 06:47:51 79° WNW 06:52:30 10° SSW
Cosmos 1825 Rocket 3.7 06:43:36 10° NNW 06:48:00 56° W 06:52:21 10° S
Cosmos 2333 Rocket 3.4 06:44:53 13° W 06:48:42 24° NW 06:53:13 10° NNE
Cosmos 1939 Rocket 3.4 06:47:33 10° NNE 06:51:30 61° ESE 06:55:20 10° S
Cosmos 2026 Rocket 4.3 06:48:04 10° NNW 06:54:04 46° W 07:00:05 10° SSW
FengYun 1-2 T 4.5 06:48:24 10° NNE 06:54:07 80° ESE 06:59:47 10° SSW
CORIOLIS 4.2 06:50:55 10° NNE 06:56:19 88° WNW 07:01:40 10° SSW
Cosmos 1655 Rocket 4.1 06:50:14 10° N 06:56:32 85° E 07:02:49 10° S
Cosmos 540 Rocket 4.1 06:53:06 10° WSW 06:57:42 33° NW 07:02:22 10° NNE
NOSS 0 Rocket 4.4 06:52:48 10° WSW 06:58:37 41° NW 07:04:26 10° NNE
Lacrosse 4 Rocket 1.4 06:54:32 10° SW 06:58:48 77° NW 07:03:12 10° NE
Cosmos 2297 4.2 06:54:46 10° NW 07:00:08 41° WSW 07:05:29 10° S
Cosmos 2058 3.7 06:56:35 10° N 07:00:40 53° ENE 07:04:42 10° SSE
NOSS 3-2 (A) 3.7 06:55:53 10° SW 07:01:39 78° SE 07:08:23 10° NE
Cosmos 1400 Rocket 3.8 06:58:54 10° SW 07:02:26 27° WNW 07:06:02 10° N
Cosmos 1455 3.9 06:59:12 10° SSE 07:02:38 36° E 07:06:07 10° NNE
Cosmos 1408 2.8 07:01:59 10° N 07:05:35 74° E 07:09:10 10° SSE
Cosmos 1825 3.2 07:02:08 10° N 07:05:49 48° ENE 07:09:29 10° SSE
CZ-4 R/B 3.3 07:03:14 10° NNE 07:06:48 34° E 07:10:19 10° SSE
CZ-2C R/B 4.4 07:03:12 10° SSE 07:07:32 56° ENE 07:11:54 10° N
Cosmos 1300 3.0 07:04:06 10° SSW 07:07:45 43° WNW 07:11:26 10° N
NOAA 11 4.2 07:02:19 10° NNE 07:07:49 76° WNW 07:13:14 10° SSW
SL-4 R/B 3.3 07:04:26 10° SW 07:08:08 42° SSE 07:12:09 10° E
Cosmos 1184 Rocket 4.0 07:05:14 10° N 07:08:22 42° ENE 07:11:29 10° SE
COSMOS 2428 3.9 07:04:33 10° W 07:08:59 23° NW 07:13:26 10° NNE
Cosmos 1953 Rocket 3.8 07:05:48 10° NNW 07:10:00 49° W 07:14:11 10° S
NOSS 3-2 (C) 4.1 07:06:16 10° SSW 07:11:53 61° SE 07:18:25 10° NE
SWARM C 4.5 07:09:19 10° N 07:12:39 71° W 07:15:57 10° S
SWARM A 4.2 07:09:26 10° N 07:12:45 66° W 07:16:04 10° S
BREEZE-M DEB (TANK) 4.4 07:09:53 10° WSW 07:13:57 63° SSE 07:30:04 10° E
SL-16 R/B 4.2 07:12:40 10° NNW 07:14:36 12° N 07:16:31 10° NNE
Cosmos 1980 4.4 07:09:45 10° WSW 07:14:52 34° NW 07:20:01 10° NNE
Meteor 2-10 Rocket 4.2 07:09:33 10° S 07:15:21 72° E 07:21:08 10° NNE
Cosmos 2360 Rocket 4.0 07:14:46 10° NW 07:17:27 13° NNW 07:20:08 10° NNE
Cosmos 1656 Rocket 3.8 07:12:02 10° NNW 07:17:32 76° ENE 07:22:57 10° SE
Cosmos 2322 Rocket 4.2 07:17:34 10° NNW 07:19:25 11° N 07:21:16 10° N
Cosmos 1441 Rocket 3.3 07:16:05 10° NNW 07:20:05 87° WSW 07:24:02 10° S
